This demonstration page uses our WeatherBlox Daily Observations layout. Learn more.

Left ArrowRight Arrow

Hourly Observations for May 22, 2018

Temp ( °F °C ) Dew Point ( °F °C ) Humidity (%) Winds ( mph kmh ) Pressure ( in mb ) Visibility ( mi km ) Precip ( " mm )
12:15 am 00:15 Cloudy 72 22 64 18 78 78 S 6 9 30.15 1021 10 16 0.00 0.00
12:30 am 00:30 Cloudy 72 22 64 18 78 78 S 7 11 30.15 1021 10 16 0.00 0.00
12:55 am 00:55 Cloudy 70 21 64 18 83 83 S 7 11 30.15 1021 10 16 0.00 0.00
1:15 am 01:15 Cloudy 72 22 64 18 78 78 S 8 13 30.15 1021 10 16 0.00 0.00
1:30 am 01:30 Cloudy 70 21 64 18 83 83 S 6 9 30.15 1021 10 16 0.00 0.00
1:55 am 01:55 Cloudy 70 21 64 18 83 83 S 6 9 30.15 1021 10 16 0.00 0.00
2:15 am 02:15 Cloudy with Light Rain 70 21 64 18 83 83 SSE 7 11 30.12 1020 10 16 0.00 0.00
2:35 am 02:35 Cloudy 70 21 63 17 78 78 S 5 7 30.12 1020 10 16 0.00 0.00
2:55 am 02:55 Cloudy 70 21 63 17 78 78 S 6 9 30.12 1020 10 16 0.00 0.00
3:15 am 03:15 Mostly Cloudy 70 21 63 17 78 78 SSE 5 7 30.12 1020 10 16 0.00 0.00
3:35 am 03:35 Mostly Cloudy 70 21 63 17 78 78 S 6 9 30.12 1020 10 16 0.00 0.00
3:55 am 03:55 Cloudy 70 21 63 17 78 78 S 5 7 30.12 1020 10 16 0.00 0.00
4:15 am 04:15 Cloudy 68 20 63 17 83 83 S 5 7 30.12 1020 10 16 0.00 0.00
4:35 am 04:35 Cloudy 68 20 63 17 83 83 S 5 7 30.12 1020 10 16 0.00 0.00
4:55 am 04:55 Cloudy 68 20 61 16 78 78 S 8 13 30.12 1020 10 16 0.00 0.00
5:15 am 05:15 Cloudy 68 20 61 16 78 78 S 6 9 30.12 1020 10 16 0.00 0.00
5:35 am 05:35 Cloudy 68 20 61 16 78 78 S 6 9 30.12 1020 10 16 0.00 0.00
5:55 am 05:55 Cloudy 68 20 61 16 78 78 S 6 9 30.12 1020 10 16 0.00 0.00
6:15 am 06:15 Cloudy 68 20 61 16 78 78 SSW 6 9 30.12 1020 10 16 0.00 0.00
6:35 am 06:35 Cloudy 68 20 63 17 83 83 S 8 13 30.12 1020 10 16 0.00 0.00
6:55 am 06:55 Cloudy with Light Rain 68 20 63 17 83 83 S 6 9 30.12 1020 10 16 0.00 0.00
7:15 am 07:15 Cloudy with Drizzle 68 20 63 17 83 83 S 7 11 30.12 1020 10 16 0.00 0.00
7:35 am 07:35 Cloudy 68 20 63 17 83 83 S 8 13 30.12 1020 10 16 0.00 0.00
7:55 am 07:55 Cloudy with Light Rain 68 20 64 18 88 88 S 6 9 30.12 1020 10 16 0.00 0.00
8:15 am 08:15 Cloudy with Light Rain 66 19 64 18 94 94 S 5 7 30.12 1020 10 16 0.00 0.00
8:35 am 08:35 Cloudy 66 19 64 18 94 94 SSE 7 11 30.12 1020 10 16 0.00 0.00
8:55 am 08:55 Cloudy 66 19 63 17 88 88 SSW 6 9 30.12 1020 10 16 0.00 0.00
9:15 am 09:15 Cloudy with Light Rain 66 19 64 18 94 94 S 7 11 30.12 1020 10 16 0.00 0.00
9:35 am 09:35 Cloudy 66 19 64 18 94 94 S 6 9 30.12 1020 10 16 0.00 0.00
9:55 am 09:55 Cloudy 66 19 64 18 94 94 S 6 9 30.12 1020 10 16 0.00 0.00
10:15 am 10:15 Cloudy with Light Rain 64 18 64 18 100 100 SW 5 7 30.12 1020 3 5 0.00 0.00
10:35 am 10:35 Cloudy with Rain 64 18 64 18 100 100 Calm 30.09 1019 3 5 0.00 0.00
10:55 am 10:55 Cloudy with Light Rain 64 18 64 18 100 100 Calm 30.09 1019 3 5 0.00 0.00
11:15 am 11:15 Cloudy with Mist and Fog 64 18 64 18 100 100 SSE 3 6 30.09 1019 5 8 0.00 0.00
11:35 am 11:35 Cloudy with Mist and Fog 66 19 66 19 100 100 Calm 30.09 1019 5 8 0.00 0.00
11:55 am 11:55 Mostly Cloudy 68 20 68 20 100 100 SSE 3 6 30.09 1019 7 11 0.00 0.00
12:15 pm 12:15 Cloudy 68 20 68 20 100 100 S 3 6 30.09 1019 7 11 0.00 0.00
12:35 pm 12:35 Cloudy 70 21 70 21 100 100 S 5 7 30.09 1019 7 11 0.00 0.00
12:55 pm 12:55 Cloudy 72 22 70 21 94 94 SSW 7 11 30.06 1018 10 16 0.00 0.00
1:15 pm 13:15 Cloudy 75 24 70 21 83 83 SSW 7 11 30.06 1018 10 16 0.00 0.00
1:35 pm 13:35 Mostly Cloudy 77 25 72 22 83 83 SSW 5 7 30.06 1018 10 16 0.00 0.00
1:55 pm 13:55 Partly Cloudy 79 26 72 22 79 79 SSW 7 11 30.06 1018 10 16 0.00 0.00
2:15 pm 14:15 Mostly Cloudy 79 26 70 21 74 74 S 7 11 30.03 1017 10 16 0.00 0.00
2:35 pm 14:35 Mostly Cloudy 79 26 70 21 74 74 SSW 6 9 30.00 1016 10 16 0.00 0.00
2:55 pm 14:55 Partly Cloudy 79 26 70 21 74 74 SSW 5 7 30.00 1016 10 16 0.00 0.00
3:15 pm 15:15 Mostly Cloudy with Nearby Thunderstorms 79 26 70 21 74 74 W 3 6 30.00 1016 10 16 0.00 0.00
3:35 pm 15:35 Cloudy with Strong Thunderstorms 73 23 72 22 94 94 NE 10 17 30.00 1016 1 1 0.00 0.00
3:55 pm 15:55 Mostly Cloudy with Nearby Thunderstorms 73 23 72 22 94 94 ESE 3 6 30.00 1016 10 16 0.00 0.00
4:15 pm 16:15 Mostly Cloudy with Nearby Thunderstorms 72 22 72 22 100 100 E 5 7 30.00 1016 10 16 0.00 0.00
4:35 pm 16:35 Partly Cloudy with Nearby Thunderstorms 72 22 70 21 94 94 NE 5 7 30.00 1016 10 16 0.00 0.00
4:55 pm 16:55 Partly Cloudy with Nearby Thunderstorms 72 22 70 21 94 94 S 6 9 30.00 1016 10 16 0.00 0.00
5:15 pm 17:15 Partly Cloudy 72 22 70 21 94 94 S 6 9 30.00 1016 10 16 0.00 0.00
5:35 pm 17:35 Mostly Cloudy with Nearby Thunderstorms 72 22 70 21 94 94 SE 5 7 30.00 1016 10 16 0.00 0.00
5:55 pm 17:55 Mostly Cloudy 72 22 70 21 94 94 ESE 3 6 30.00 1016 10 16 0.00 0.00
6:15 pm 18:15 Partly Cloudy 73 23 70 21 89 89 Calm 30.00 1016 10 16 0.00 0.00
6:35 pm 18:35 Partly Cloudy 73 23 70 21 89 89 SSE 3 6 30.00 1016 10 16 0.00 0.00
6:55 pm 18:55 Partly Cloudy 73 23 70 21 89 89 Calm 30.00 1016 10 16 0.00 0.00
7:15 pm 19:15 Sunny 73 23 70 21 89 89 SE 3 6 29.97 1015 10 16 0.00 0.00
7:35 pm 19:35 Sunny 72 22 70 21 94 94 S 5 7 29.97 1015 10 16 0.00 0.00
7:55 pm 19:55 Sunny 72 22 70 21 94 94 S 6 9 29.97 1015 10 16 0.00 0.00
8:15 pm 20:15 Sunny 70 21 70 21 100 100 SSW 6 9 29.97 1015 10 16 0.00 0.00
8:35 pm 20:35 Partly Cloudy 70 21 70 21 100 100 SSW 6 9 29.97 1015 10 16 0.00 0.00
8:55 pm 20:55 Mostly Cloudy 68 20 68 20 100 100 S 6 9 29.97 1015 10 16 0.00 0.00
9:15 pm 21:15 Mostly Cloudy 68 20 68 20 100 100 S 6 9 30.00 1016 10 16 0.00 0.00
9:35 pm 21:35 Cloudy with Light Rain 68 20 68 20 100 100 S 6 9 30.00 1016 10 16 0.00 0.00
9:55 pm 21:55 Mostly Cloudy 68 20 68 20 100 100 S 7 11 30.00 1016 10 16 0.00 0.00
10:15 pm 22:15 Partly Cloudy 66 19 66 19 100 100 S 7 11 30.00 1016 10 16 0.00 0.00
10:35 pm 22:35 Mostly Cloudy 66 19 66 19 100 100 S 7 11 30.00 1016 10 16 0.00 0.00
11:00 pm 23:00 Cloudy 64 18 64 18 100 100 Calm 30.00 1016 10 16 0.00 0.00
11:15 pm 23:15 Cloudy 64 18 64 18 100 100 S 5 7 30.00 1016 10 16 0.00 0.00
11:35 pm 23:35 Cloudy 66 19 66 19 100 100 S 10 17 29.97 1015 10 16 0.00 0.00
11:55 pm 23:55 Cloudy 64 18 64 18 100 100 SSW 10 17 29.97 1015 10 16 0.00 0.00

Powered by AerisWeather